Weather History for Window Rock, AZ

Change the Weather History Date:

Tuesday, June 10, 2014

  Actual Average Record
Temperature  
Mean Temperature 63 °F -  
Max Temperature 89 °F 77 °F 92 °F (1985)
Min Temperature 37 °F 44 °F 30 °F (1979)
Degree Days  
Heating Degree Days 2    
Growing Degree Days 13 (Base 50)    
Moisture  
Dew Point 12 °F    
Average Humidity 15    
Maximum Humidity 32    
Minimum Humidity 4    
Precipitation  
Precipitation 0.00 in - - ()
Sea Level Pressure  
Sea Level Pressure 29.79 in    
Wind  
Wind Speed 5 mph (WSW)    
Max Wind Speed 16 mph    
Max Gust Speed 25 mph    
Visibility 10 miles    
Events      
Averages and records for this station are not official NWS values.
T = Trace of Precipitation, MM = Missing Value Source: NWS Daily Summary

Daily Weather History Graph

Daily Weather History Graph

Search for Another Location

Airport:

Trip Planner

Search our weather history database for the weather conditions in past years. The results will help you decide how hot, cold, wet, or windy it might be!

Date:

Astronomy

Jun. 10, 2014 Rise Set
Actual Time 5:59 AM MDT 8:31 PM MDT
Civil Twilight 5:30 AM MDT 9:01 PM MDT
Nautical Twilight 4:53 AM MDT 9:38 PM MDT
Astronomical Twilight 4:12 AM MDT 10:19 PM MDT
Moon 6:04 PM MDT (6/10) 4:02 AM MDT (6/10)
Length of Visible Light 15h 31m
Length of Day
14h 31m
Waxing Gibbous, 92% of the Moon is Illuminated
Jun 10
Waxing Gibbous
Jun 12
Full
Jun 19
Last Quarter
Jun 27
New
Jul 5
First Quarter

Hourly Weather History & Observations

Time (MDT) Temp. Windchill Dew Point Humidity Pressure Visibility Wind Dir Wind Speed Gust Speed Precip Events Conditions
12:53 AM 46.9 °F - 8.1 °F 21% 29.86 in 10.0 mi Calm Calm - N/A   Clear
2:53 AM 37.9 °F 35.5 °F 10.0 °F 32% 29.88 in 10.0 mi SW 3.5 mph - N/A   Clear
3:53 AM 39.9 °F - 10.0 °F 29% 29.87 in 10.0 mi Calm Calm - N/A   Clear
4:53 AM 39.0 °F - 9.0 °F 29% 29.87 in 10.0 mi Calm Calm - N/A   Clear
5:53 AM 41.0 °F 39.0 °F 9.0 °F 27% 29.88 in 10.0 mi NE 3.5 mph - N/A   Clear
6:53 AM 43.0 °F - 10.9 °F 27% 29.89 in 10.0 mi Calm Calm - N/A   Clear
7:53 AM 48.9 °F - 12.9 °F 24% 29.88 in 10.0 mi Calm Calm - N/A   Clear
9:53 AM 75.0 °F - 14.0 °F 10% 29.83 in 10.0 mi Calm Calm - N/A   Clear
11:53 AM 84.0 °F - 9.0 °F 6% 29.81 in 10.0 mi Variable 5.8 mph - N/A   Clear
12:53 PM 84.9 °F - 6.1 °F 5% 29.81 in 10.0 mi Variable 5.8 mph - N/A   Clear
1:53 PM 87.1 °F - 5.0 °F 4% 29.78 in 10.0 mi SSW 10.4 mph 17.3 mph N/A   Clear
3:53 PM 89.1 °F - 6.1 °F 4% 29.77 in 10.0 mi WNW 16.1 mph 23.0 mph N/A   Clear
4:53 PM 87.1 °F - 6.1 °F 5% 29.78 in 10.0 mi WSW 10.4 mph 21.9 mph N/A   Clear
5:53 PM 87.1 °F - 8.1 °F 5% 29.73 in 10.0 mi SW 12.7 mph - N/A   Clear
6:53 PM 86.0 °F - 9.0 °F 5% 29.71 in 10.0 mi WSW 16.1 mph 25.3 mph N/A   Clear
7:53 PM 82.0 °F - 12.9 °F 7% 29.70 in 10.0 mi SW 10.4 mph - N/A   Clear
9:53 PM 75.0 °F - 27.0 °F 17% 29.66 in 10.0 mi WSW 9.2 mph - N/A   Clear
10:53 PM 73.9 °F - 27.0 °F 18% 29.66 in 10.0 mi WSW 12.7 mph - N/A   Clear
11:53 PM 73.0 °F - 28.0 °F 19% 29.65 in 10.0 mi WSW 16.1 mph 24.2 mph N/A   Clear